Regional Weather Roundup
Issued by NWS

Home | Current Version | Previous Version | Text Only | Print | Product List | Glossary Off
Versions: 1 2 3 4 5 6 7 8 9 10 11 12 13 14 15 16 17 18 19 20 21 22 23 24 25 26 27 28 29 30 31 32 33 34 35 36 37 38 39 40 41 42 43 44 45 46 47 48 49 50

000
ASUS45 KCYS 031710
RWRWY

WYOMING REGIONAL WEATHER ROUNDUP
NATIONAL WEATHER SERVICE CHEYENNE WY
1100 AM MDT THU SEP 03 2015

NOTE:  "FAIR" INDICATES FEW OR NO CLOUDS BELOW 12,000 FEET
WITH NO SIGNIFICANT WEATHER AND/OR OBSTRUCTIONS TO VISIBILITY.

WYZ001-031800-
YELLOWSTONE NATIONAL PARK

CITY           SKY/WX    TMP DP  RH WIND       PRES   REMARKS
LK YELLOWSTONE   N/A     63  39  41 W8        30.09S
W YELLOWSTONE  NOT AVBL

$$
WYZ002>013-054>058-071-098>099-031800-
NORTHERN WYOMING

CITY           SKY/WX    TMP DP  RH WIND       PRES   REMARKS
JACKSON        FAIR      73  37  27 SW17G23   30.00S
CODY           FAIR      63  39  42 N5        29.92F
GREYBULL       FAIR      78  35  21 W8        29.83S
WORLAND        FAIR      77  47  34 N5        29.85S
SHERIDAN       FAIR      72  35  25 N8        29.88F
BUFFALO        FAIR      72  37  28 CALM      29.94F
GILLETTE       FAIR      82  41  23 N9        29.89R
HULETT         FAIR      82  43  24 SW10      29.88F
NEWCASTLE      FAIR      81  37  21 NE3       29.91S

$$
WYZ014>020-022>026-101>103-031800-
CENTRAL WYOMING

CITY           SKY/WX    TMP DP  RH WIND       PRES   REMARKS
BIG PINEY      FAIR      68  37  32 SE8       30.09F
PINEDALE       FAIR      70  32  24 SW12      30.11S
DUBOIS         FAIR      68  32  26 SW13G21   30.05F
LANDER         FAIR      76  39  26 SW10      29.95S
RIVERTON       FAIR      73  40  30 CALM      29.96S
CASPER         FAIR      82  40  22 SW20G26   29.98S
DOUGLAS        FAIR      86  40  19 NW8       29.96F

$$
WYZ021-027>030-104>119-031800-
SOUTHERN WYOMING

CITY           SKY/WX    TMP DP  RH WIND       PRES   REMARKS
EVANSTON       FAIR      74  33  22 SW24G36   30.10S
KEMMERER       FAIR      70  30  23 SW20G31   30.12S
FORT BRIDGER   SUNNY     75  32  20 SW18G28   30.14S
ROCK SPRINGS   FAIR      71  38  29 W7        30.10F
DIXON          FAIR      76  43  29 S14G20    30.16S
RAWLINS        FAIR      78  39  24 SW16G24   30.12S
SARATOGA       FAIR      75  41  29 SW10      30.15F
LARAMIE        FAIR      73  40  30 SW13G24   30.16S
CHEYENNE       CLOUDY    80  41  24 W9        30.08F
TORRINGTON     FAIR      84  46  26 VRB5      29.91F
PINE BLUFFS    FAIR      84  37  18 CALM      30.02R

$$



USA.gov is the U.S. government's official web portal to all federal, state and local government web resources and services.